Regional Weather Roundup
Issued by NWS

Home | Current Version | Previous Version | Graphics & Text | Print | Product List | Glossary On
Versions: 1 2 3 4 5 6 7 8 9 10 11 12 13 14 15 16 17 18 19 20 21 22 23 24 25 26 27 28 29 30 31 32 33 34 35 36 37 38 39 40 41 42 43 44 45 46 47 48 49 50
000
ASUS45 KBOU 061407
RWRCO

WEATHER ROUNDUP FOR COLORADO
NATIONAL WEATHER SERVICE DENVER/BOULDER CO
700 AM MST TUE DEC 06 2016

NOTE: "FAIR" INDICATES FEW OR NO CLOUDS BELOW 12000 FEET WITH NO
SIGNIFICANT WEATHER AND/OR OBSTRUCTIONS TO VISIBILITY.

COZ001>005-013-030-031-061500-
...NORTHWEST COLORADO...

CITY           SKY/WX    TMP DP  RH WIND       PRES   REMARKS
CRAIG          MOCLDY    -2  -9  72 CALM      29.93S
HAYDEN         CLOUDY     3  -8  60 SE10      29.89F WCI -12
MEEKER         CLOUDY     8   1  73 CALM      29.89F
MOUNT WERNER   NOT AVBL
STEAMBOAT SPGS CLOUDY    -8 -13  77 CALM      29.89F
WALDEN           N/A     -9 -18  64 SE3       29.84R
$$

COZ006>008-011-061500-
...WEST CENTRAL VALLEYS...

CITY           SKY/WX    TMP DP  RH WIND       PRES   REMARKS
GRAND JUNCTION FAIR      16   8  71 CALM      29.91S
MONTROSE       FAIR      15   8  73 SE6       29.93S WCI   6
EAGLE          MOCLDY    16   1  53 CALM      29.91S
RIFLE          MOCLDY    17   9  70 SE6       29.92S WCI   9
DELTA          NOT AVBL
NUCLA          FAIR      18  12  79 SE3       29.91S
$$

COZ017>023-064>068-061500-
...SOUTHWEST COLORADO...

CITY           SKY/WX    TMP DP  RH WIND       PRES   REMARKS
DURANGO        FAIR      21  13  71 CALM      29.89R
CORTEZ         FAIR      23  20  88 CALM      29.88R
PAGOSA SPRINGS FAIR      16  15  93 CALM      29.88F
TELLURIDE      CLOUDY    24   3  39 CALM      29.86F
WOLF CREEK PAS FAIR       7   5  92 SW13G22   29.87S WCI  -9
$$

COZ009-010-012-014-032>034-037-058>063-061500-
...CENTRAL COLORADO...

CITY           SKY/WX    TMP DP  RH WIND       PRES   REMARKS
ASPEN          CLOUDY    10   4  76 S5        29.83R WCI   2
BUENA VISTA    FAIR      12   1  60 SE6       29.79R WCI   3
COPPER MTN     CLOUDY    10   3  72 MISG      29.70R
BERTHOUD PASS  LGT SNOW   0 -13  55 W26G33    29.64R VSB 1   WCI -25
COTTONWOOD PAS MOCLDY    25   0  33 W6G20     29.74S WCI  18
GUNNISON       MOCLDY     2  -2  83 CALM      29.89R
KREMMLING      CLOUDY     9   1  72 CALM      29.90S
LEADVILLE      FAIR       5  -3  69 N8        29.74R WCI  -8
MONARCH PASS     N/A      5   1  85 W25G33    29.84R WCI -18
SALIDA         FAIR      12  -2  53 SE9G20    29.90R WCI   0
SUNLIGHT       FAIR       3   0  85 SW16G29   29.78F WCI -16
WILKERSON PASS FAIR       9   1  72 SW12      29.74S WCI  -6
$$

COZ069>075-061500-
...SAN LUIS VALLEY/SANGRE DE CRISTO MOUNTAINS...

CITY           SKY/WX    TMP DP  RH WIND       PRES   REMARKS
ALAMOSA        FAIR      -3  -6  87 E3        29.84S
LA VETA PASS   FAIR      19   3  49 N14G28    29.82S WCI   6
SAGUACHE       FAIR       9   1  72 N12       29.85S WCI  -6
$$

COZ035-036-038>040-061500-
...NORTHERN COLORADO FRONT RANGE...

CITY           SKY/WX    TMP DP  RH WIND       PRES   REMARKS
DENVER INTL AP FAIR       5  -3  69 S10       29.92R WCI -10
DMNS CITY PARK   N/A     15  -2  46 SW1G8     29.93S
AURORA         PTCLDY     9  -3  57 S10       29.91S WCI  -5
FRONT RANGE AP PTCLDY     9  -2  61 S7        29.93  WCI  -3
ERIE MUNI ARPT FAIR      17  -3  41 S8        29.93S WCI   6
BOULDER MUN AP FAIR      14   0  52 N5        29.92R WCI   6
CENTENNIAL     FAIR      14  -2  49 SE13      29.90S WCI   0
BROOMFIELD     PTCLDY    16  -2  45 S8        29.91S WCI   5
FORT COLLINS   FAIR      12  -2  52 SE8       29.95R WCI   1
LONGMONT       FAIR      10  -2  60 CALM      29.96S
$$

COZ041-046-047-076>085-087-088-061500-
...PIKES PEAK/PALMER DIVIDE AND SOUTHERN FOOTHILLS...

CITY           SKY/WX    TMP DP  RH WIND       PRES   REMARKS
COLO. SPRINGS  FAIR      13   0  56 S17       29.93S WCI  -4
A. F. ACADEMY  FAIR       4  -4  69 SE3       29.89S
SCHRIEVER AFB  NOT AVBL
ELLICOTT       LGT RAIN N/A N/A N/A CALM        N/A
FALCON         FAIR       6  -1  73 S7        29.90S WCI  -6
FORT CARSON    FAIR       7  -3  66 E8        29.93R WCI  -6
LIMON          FAIR      -3  -6  87 N3        29.97R
MONUMENT HILL  FAIR       5  -4  66 S12       29.87F WCI -11
TRINIDAD       FAIR       8  -2  63 SE3       29.97S
$$

COZ042>045-048>051-090-091-061500-
...NORTHEAST COLORADO...

CITY           SKY/WX    TMP DP  RH WIND       PRES   REMARKS
GREELEY ARPT   FAIR       5  -4  66 CALM      29.98S
AKRON          CLOUDY     7   0  73 W8        29.97R WCI  -6
BURLINGTON     FAIR       8   0  69 NW9       30.02R WCI  -5
WRAY           NOT AVBL
STERLING       FAIR       3   0  85 SW3       30.00R
HOLYOKE        FAIR       9   3  78 W8        29.99F WCI  -4
FORT MORGAN    FAIR      11  -4  51 NW3       29.99S
$$

COZ086-089-092>099-061500-
...SOUTHEAST COLORADO...

CITY           SKY/WX    TMP DP  RH WIND       PRES   REMARKS
PUEBLO         FAIR       9   1  70 CALM      30.01R
LA JUNTA       FAIR      15   5  64 SW3       30.06R
LAMAR          FAIR       6   2  83 SW8       30.08R WCI  -7
SPRINGFIELD      N/A      6   2  83 W8        30.04R WCI  -7
$$



USA.gov is the U.S. government's official web portal to all federal, state and local government web resources and services.